Time,TemperatureF,DewpointF,PressureIn,WindDirection,WindDirectionDegrees,WindSpeedMPH,WindSpeedGustMPH,Humidity,HourlyPrecipIn,Conditions,Clouds,dailyrainin,SoftwareType,DateUTC
2013-11-18 07:28:00,44.0,38.9,29.70,WSW,247,3.0,3.0,82,0.00,,OVC080,0.00,VWS V14.01,2013-11-18 12:28:00,
2013-11-18 07:30:00,44.0,39.2,29.70,WSW,247,6.0,11.0,83,0.36,,OVC080,0.00,VWS V14.01,2013-11-18 12:30:00,
2013-11-18 07:32:00,44.0,39.2,29.70,West,270,3.0,9.0,83,0.36,,OVC080,0.00,VWS V14.01,2013-11-18 12:32:00,
2013-11-18 07:37:00,44.0,38.5,29.70,West,270,3.0,12.0,81,0.36,,OVC080,0.00,VWS V14.01,2013-11-18 12:37:00,
2013-11-18 07:38:00,44.0,38.9,29.70,WSW,247,10.0,14.0,82,0.36,,OVC080,0.00,VWS V14.01,2013-11-18 12:38:00,
2013-11-18 07:43:00,44.0,38.9,29.70,West,270,5.0,8.0,82,0.36,,OVC080,0.00,VWS V14.01,2013-11-18 12:43:00,
2013-11-18 07:45:00,44.0,38.9,29.70,West,270,8.0,12.0,82,0.36,,OVC080,0.00,VWS V14.01,2013-11-18 12:45:00,
2013-11-18 07:50:00,44.0,38.9,29.70,SW,225,5.0,6.0,82,0.36,,OVC080,0.00,VWS V14.01,2013-11-18 12:50:00,
2013-11-18 07:55:00,44.0,38.9,29.70,SE,135,1.0,7.0,82,0.36,,OVC080,0.00,VWS V14.01,2013-11-18 12:55:00,
2013-11-18 08:00:00,44.0,39.2,29.71,SW,225,0.0,5.0,83,0.36,,OVC080,0.00,VWS V14.01,2013-11-18 13:00:00,
2013-11-18 08:05:00,44.0,39.2,29.71,SW,225,5.0,12.0,83,0.36,,OVC080,0.00,VWS V14.01,2013-11-18 13:05:00,
2013-11-18 08:10:00,44.0,39.2,29.71,SE,135,0.0,6.0,83,0.36,,OVC080,0.00,VWS V14.01,2013-11-18 13:10:00,
2013-11-18 08:15:00,44.0,38.9,29.71,WSW,247,4.0,8.0,82,0.36,,OVC080,0.00,VWS V14.01,2013-11-18 13:15:00,
2013-11-18 08:20:00,44.0,39.2,29.71,West,270,10.0,15.0,83,0.36,,OVC080,0.00,VWS V14.01,2013-11-18 13:20:00,
2013-11-18 08:25:00,44.0,38.9,29.71,WSW,247,3.0,16.0,82,0.36,,OVC080,0.00,VWS V14.01,2013-11-18 13:25:00,
2013-11-18 08:30:00,44.0,38.9,29.71,West,270,6.0,9.0,82,0.00,,OVC080,0.00,VWS V14.01,2013-11-18 13:30:00,
2013-11-18 08:35:00,44.0,38.9,29.71,SW,225,1.0,2.0,82,0.00,,OVC080,0.00,VWS V14.01,2013-11-18 13:35:00,
2013-11-18 08:40:00,44.0,38.9,29.70,SW,225,7.0,9.0,82,0.00,,OVC080,0.00,VWS V14.01,2013-11-18 13:40:00,
2013-11-18 08:45:00,44.0,38.9,29.70,West,270,7.0,8.0,82,0.00,,OVC080,0.00,VWS V14.01,2013-11-18 13:45:00,
2013-11-18 08:50:00,44.0,38.2,29.70,WSW,247,2.0,9.0,80,0.00,,OVC080,0.00,VWS V14.01,2013-11-18 13:50:00,
2013-11-18 08:55:00,44.0,37.9,29.70,West,270,10.0,15.0,79,0.00,,OVC080,0.00,VWS V14.01,2013-11-18 13:55:00,
2013-11-18 09:00:00,44.0,37.9,29.70,WSW,247,1.0,7.0,79,0.00,,OVC080,0.00,VWS V14.01,2013-11-18 14:00:00,
2013-11-18 09:05:00,45.0,38.6,29.70,SSW,202,9.0,10.0,78,0.00,,OVC080,0.00,VWS V14.01,2013-11-18 14:05:00,
2013-11-18 09:10:00,45.0,38.2,29.70,SW,225,5.0,9.0,77,0.00,,OVC080,0.00,VWS V14.01,2013-11-18 14:10:00,
2013-11-18 09:15:00,45.0,38.2,29.70,NW,315,5.0,7.0,77,0.00,,OVC080,0.00,VWS V14.01,2013-11-18 14:15:00,
2013-11-18 09:20:00,45.0,37.9,29.70,SW,225,5.0,9.0,76,0.00,,OVC080,0.00,VWS V14.01,2013-11-18 14:20:00,
2013-11-18 09:25:00,45.0,37.2,29.70,NW,315,4.0,10.0,74,0.00,,OVC080,0.00,VWS V14.01,2013-11-18 14:25:00,
2013-11-18 09:30:00,46.0,37.5,29.69,SW,225,7.0,11.0,72,0.00,,OVC080,0.00,VWS V14.01,2013-11-18 14:30:00,
2013-11-18 09:35:00,46.0,37.5,29.69,West,270,5.0,8.0,72,0.00,,OVC080,0.00,VWS V14.01,2013-11-18 14:35:00,
2013-11-18 09:40:00,46.0,37.5,29.68,NW,315,4.0,7.0,72,0.00,,OVC080,0.00,VWS V14.01,2013-11-18 14:40:00,
2013-11-18 09:45:00,47.0,37.4,29.68,West,270,7.0,9.0,69,0.00,,OVC080,0.00,VWS V14.01,2013-11-18 14:45:00,
2013-11-18 09:50:00,47.0,37.4,29.68,WSW,247,3.0,10.0,69,0.00,,OVC080,0.00,VWS V14.01,2013-11-18 14:50:00,
2013-11-18 09:55:00,48.0,38.0,29.68,SSW,202,4.0,5.0,68,0.00,,OVC080,0.00,VWS V14.01,2013-11-18 14:55:00,
2013-11-18 10:00:00,47.0,36.6,29.68,WSW,247,2.0,11.0,67,0.00,,OVC080,0.00,VWS V14.01,2013-11-18 15:00:00,
2013-11-18 10:05:00,48.0,37.6,29.68,West,270,10.0,16.0,67,0.00,,OVC080,0.00,VWS V14.01,2013-11-18 15:05:00,
2013-11-18 10:10:00,47.0,36.2,29.68,SW,225,9.0,10.0,66,0.00,,OVC080,0.00,VWS V14.01,2013-11-18 15:10:00,
2013-11-18 10:15:00,48.0,37.6,29.68,SW,225,5.0,8.0,67,0.00,,OVC080,0.00,VWS V14.01,2013-11-18 15:15:00,
2013-11-18 10:20:00,48.0,37.6,29.68,SW,225,6.0,18.0,67,0.00,,OVC080,0.00,VWS V14.01,2013-11-18 15:20:00,
2013-11-18 10:25:00,48.0,37.2,29.68,SW,225,7.0,10.0,66,0.00,,OVC080,0.00,VWS V14.01,2013-11-18 15:25:00,
2013-11-18 10:30:00,48.0,37.6,29.67,WNW,292,2.0,6.0,67,0.00,,OVC080,0.00,VWS V14.01,2013-11-18 15:30:00,
2013-11-18 10:35:00,49.0,37.4,29.67,SSW,202,3.0,7.0,64,0.00,,OVC080,0.00,VWS V14.01,2013-11-18 15:35:00,
2013-11-18 10:40:00,49.0,37.0,29.67,SSW,202,7.0,13.0,63,0.00,,OVC080,0.00,VWS V14.01,2013-11-18 15:40:00,
2013-11-18 10:45:00,48.0,36.0,29.67,WSW,247,10.0,17.0,63,0.00,,OVC080,0.00,VWS V14.01,2013-11-18 15:45:00,
2013-11-18 10:50:00,49.0,37.8,29.67,SW,225,6.0,6.0,65,0.00,,OVC080,0.00,VWS V14.01,2013-11-18 15:50:00,
2013-11-18 10:56:00,49.0,37.0,29.67,West,270,8.0,16.0,63,0.00,,OVC080,0.00,VWS V14.01,2013-11-18 15:56:00,
2013-11-18 11:01:00,48.0,36.0,29.67,NW,315,1.0,10.0,63,0.00,,OVC080,0.00,VWS V14.01,2013-11-18 16:01:00,
2013-11-18 11:04:00,49.0,36.6,29.67,WNW,292,11.0,13.0,62,0.00,,OVC080,0.00,VWS V14.01,2013-11-18 16:04:00,
2013-11-18 11:10:00,49.0,37.0,29.67,West,270,3.0,13.0,63,0.00,,OVC080,0.00,VWS V14.01,2013-11-18 16:10:00,
2013-11-18 11:15:00,49.0,37.0,29.67,WNW,292,5.0,13.0,63,0.00,,OVC080,0.00,VWS V14.01,2013-11-18 16:15:00,
2013-11-18 11:20:00,49.0,36.6,29.66,West,270,6.0,13.0,62,0.00,,OVC080,0.00,VWS V14.01,2013-11-18 16:20:00,
2013-11-18 11:25:00,49.0,36.6,29.66,West,270,10.0,10.0,62,0.00,,OVC080,0.00,VWS V14.01,2013-11-18 16:25:00,
2013-11-18 11:30:00,50.0,36.7,29.66,West,270,3.0,11.0,60,0.00,,OVC080,0.00,VWS V14.01,2013-11-18 16:30:00,
2013-11-18 11:35:00,50.0,36.2,29.66,SSW,202,4.0,7.0,59,0.00,,OVC080,0.00,VWS V14.01,2013-11-18 16:35:00,
2013-11-18 11:40:00,50.0,35.8,29.66,West,270,5.0,8.0,58,0.00,,OVC080,0.00,VWS V14.01,2013-11-18 16:40:00,
2013-11-18 11:45:00,50.0,35.8,29.66,South,180,1.0,7.0,58,0.00,,OVC080,0.00,VWS V14.01,2013-11-18 16:45:00,
2013-11-18 11:50:00,50.0,35.8,29.66,SSW,202,7.0,14.0,58,0.00,,OVC080,0.00,VWS V14.01,2013-11-18 16:50:00,
2013-11-18 11:55:00,50.0,36.7,29.66,West,270,6.0,8.0,60,0.00,,OVC080,0.00,VWS V14.01,2013-11-18 16:55:00,
2013-11-18 12:00:00,50.0,35.8,29.66,West,270,10.0,10.0,58,0.00,,OVC080,0.00,VWS V14.01,2013-11-18 17:00:00,
2013-11-18 12:05:00,50.0,35.4,29.66,North,360,2.0,16.0,57,0.00,,OVC080,0.00,VWS V14.01,2013-11-18 17:05:00,
2013-11-18 12:10:00,50.0,35.8,29.65,SW,225,10.0,10.0,58,0.00,,OVC080,0.00,VWS V14.01,2013-11-18 17:10:00,
2013-11-18 12:15:00,49.0,35.3,29.65,SW,225,5.0,10.0,59,0.00,,OVC080,0.00,VWS V14.01,2013-11-18 17:15:00,
2013-11-18 12:20:00,49.0,36.2,29.65,SSW,202,4.0,7.0,61,0.00,,OVC080,0.00,VWS V14.01,2013-11-18 17:20:00,
2013-11-18 12:25:00,50.0,35.8,29.65,West,270,9.0,13.0,58,0.00,,OVC080,0.00,VWS V14.01,2013-11-18 17:25:00,
2013-11-18 12:30:00,50.0,34.9,29.66,SW,225,17.0,17.0,56,0.00,,OVC080,0.00,VWS V14.01,2013-11-18 17:30:00,
2013-11-18 12:35:00,51.0,35.9,29.66,West,270,5.0,9.0,56,0.00,,OVC080,0.00,VWS V14.01,2013-11-18 17:35:00,
2013-11-18 12:40:00,50.0,35.4,29.65,West,270,7.0,9.0,57,0.00,,OVC080,0.00,VWS V14.01,2013-11-18 17:40:00,
2013-11-18 12:45:00,49.0,34.9,29.65,SW,225,7.0,14.0,58,0.00,,OVC080,0.00,VWS V14.01,2013-11-18 17:45:00,
2013-11-18 12:50:00,50.0,35.4,29.66,West,270,11.0,11.0,57,0.00,,OVC080,0.00,VWS V14.01,2013-11-18 17:50:00,
2013-11-18 12:55:00,51.0,35.9,29.66,WSW,247,6.0,15.0,56,0.00,,OVC080,0.00,VWS V14.01,2013-11-18 17:55:00,
2013-11-18 13:00:00,51.0,35.4,29.65,SW,225,2.0,7.0,55,0.00,,OVC080,0.00,VWS V14.01,2013-11-18 18:00:00,
2013-11-18 13:05:00,50.0,34.5,29.65,SW,225,8.0,19.0,55,0.00,,OVC080,0.00,VWS V14.01,2013-11-18 18:05:00,
2013-11-18 13:10:00,49.0,34.0,29.65,West,270,6.0,11.0,56,0.00,,OVC080,0.00,VWS V14.01,2013-11-18 18:10:00,
2013-11-18 13:15:00,49.0,34.9,29.65,NW,315,2.0,12.0,58,0.00,,OVC080,0.00,VWS V14.01,2013-11-18 18:15:00,
2013-11-18 13:20:00,49.0,34.9,29.67,NE,45,1.0,12.0,58,0.00,,OVC080,0.00,VWS V14.01,2013-11-18 18:20:00,
2013-11-18 13:25:00,49.0,34.0,29.67,West,270,4.0,10.0,56,0.00,,OVC080,0.00,VWS V14.01,2013-11-18 18:25:00,
2013-11-18 13:30:00,51.0,34.5,29.68,SW,225,7.0,17.0,53,0.00,,OVC080,0.00,VWS V14.01,2013-11-18 18:30:00,
2013-11-18 13:35:00,51.0,35.0,29.68,NW,315,5.0,9.0,54,0.00,,OVC080,0.00,VWS V14.01,2013-11-18 18:35:00,
2013-11-18 13:40:00,50.0,34.9,29.67,NW,315,5.0,10.0,56,0.00,,OVC080,0.00,VWS V14.01,2013-11-18 18:40:00,
2013-11-18 13:45:00,50.0,34.5,29.67,West,270,9.0,9.0,55,0.00,,OVC080,0.00,VWS V14.01,2013-11-18 18:45:00,
2013-11-18 13:50:00,49.0,34.5,29.68,WNW,292,7.0,15.0,57,0.00,,OVC080,0.00,VWS V14.01,2013-11-18 18:50:00,
2013-11-18 13:55:00,49.0,34.9,29.68,NW,315,1.0,6.0,58,0.00,,OVC080,0.00,VWS V14.01,2013-11-18 18:55:00,
2013-11-18 14:00:00,50.0,34.5,29.69,West,270,7.0,10.0,55,0.00,,OVC080,0.00,VWS V14.01,2013-11-18 19:00:00,
2013-11-18 14:05:00,51.0,34.5,29.69,WNW,292,5.0,16.0,53,0.00,,OVC080,0.00,VWS V14.01,2013-11-18 19:05:00,
2013-11-18 14:10:00,49.0,33.1,29.68,WNW,292,14.0,16.0,54,0.00,,OVC080,0.00,VWS V14.01,2013-11-18 19:10:00,
2013-11-18 14:15:00,48.0,32.6,29.68,SW,225,9.0,15.0,55,0.00,,OVC080,0.00,VWS V14.01,2013-11-18 19:15:00,
2013-11-18 14:20:00,48.0,32.6,29.70,West,270,10.0,18.0,55,0.00,,OVC080,0.00,VWS V14.01,2013-11-18 19:20:00,
2013-11-18 14:25:00,49.0,33.1,29.70,SW,225,9.0,9.0,54,0.00,,OVC080,0.00,VWS V14.01,2013-11-18 19:25:00,
2013-11-18 14:30:00,50.0,33.1,29.69,NW,315,5.0,9.0,52,0.00,,OVC080,0.00,VWS V14.01,2013-11-18 19:30:00,
2013-11-18 14:35:00,51.0,34.5,29.69,West,270,3.0,7.0,53,0.00,,OVC080,0.00,VWS V14.01,2013-11-18 19:35:00,
2013-11-18 14:40:00,50.0,33.6,29.69,NW,315,11.0,16.0,53,0.00,,OVC080,0.00,VWS V14.01,2013-11-18 19:40:00,
2013-11-18 14:45:00,49.0,33.1,29.69,NW,315,8.0,14.0,54,0.00,,OVC080,0.00,VWS V14.01,2013-11-18 19:45:00,
2013-11-18 14:50:00,48.0,33.1,29.71,West,270,8.0,12.0,56,0.01,,OVC080,0.01,VWS V14.01,2013-11-18 19:50:00,
2013-11-18 14:55:00,48.0,33.5,29.71,WSW,247,9.0,13.0,57,0.01,,OVC080,0.01,VWS V14.01,2013-11-18 19:55:00,
2013-11-18 15:00:00,47.0,33.0,29.71,NW,315,8.0,11.0,58,0.01,,OVC080,0.01,VWS V14.01,2013-11-18 20:00:00,
2013-11-18 15:05:00,47.0,33.0,29.71,NW,315,7.0,9.0,58,0.01,,OVC080,0.01,VWS V14.01,2013-11-18 20:05:00,
2013-11-18 15:10:00,47.0,32.1,29.74,WSW,247,6.0,14.0,56,0.01,,OVC080,0.01,VWS V14.01,2013-11-18 20:10:00,
2013-11-18 15:15:00,47.0,32.6,29.74,West,270,0.0,8.0,57,0.01,,OVC080,0.01,VWS V14.01,2013-11-18 20:15:00,
2013-11-18 15:20:00,47.0,32.6,29.75,West,270,10.0,10.0,57,0.01,,OVC080,0.01,VWS V14.01,2013-11-18 20:20:00,
2013-11-18 15:25:00,46.0,32.1,29.75,NW,315,6.0,12.0,58,0.01,,OVC080,0.01,VWS V14.01,2013-11-18 20:25:00,
2013-11-18 15:30:00,46.0,32.1,29.76,North,360,0.0,10.0,58,0.01,,OVC080,0.01,VWS V14.01,2013-11-18 20:30:00,
2013-11-18 15:35:00,46.0,32.5,29.76,WSW,247,2.0,15.0,59,0.01,,OVC080,0.01,VWS V14.01,2013-11-18 20:35:00,
2013-11-18 15:40:00,46.0,32.9,29.77,West,270,7.0,16.0,60,0.01,,OVC080,0.01,VWS V14.01,2013-11-18 20:40:00,
2013-11-18 15:45:00,45.0,32.0,29.77,WSW,247,4.0,8.0,60,0.01,,OVC080,0.01,VWS V14.01,2013-11-18 20:45:00,
2013-11-18 15:50:00,45.0,32.0,29.78,NW,315,8.0,18.0,60,0.00,,OVC080,0.01,VWS V14.01,2013-11-18 20:50:00,
2013-11-18 15:55:00,45.0,32.0,29.78,NW,315,16.0,18.0,60,0.00,,OVC080,0.01,VWS V14.01,2013-11-18 20:55:00,
2013-11-18 16:00:00,45.0,32.0,29.78,WNW,292,6.0,8.0,60,0.00,,OVC080,0.01,VWS V14.01,2013-11-18 21:00:00,
2013-11-18 16:05:00,45.0,32.0,29.78,NW,315,8.0,15.0,60,0.00,,OVC080,0.01,VWS V14.01,2013-11-18 21:05:00,
2013-11-18 16:10:00,44.0,31.0,29.80,NW,315,8.0,9.0,60,0.00,,OVC080,0.01,VWS V14.01,2013-11-18 21:10:00,
2013-11-18 16:15:00,44.0,31.0,29.80,West,270,13.0,14.0,60,0.00,,OVC080,0.01,VWS V14.01,2013-11-18 21:15:00,
2013-11-18 16:20:00,44.0,31.4,29.81,WNW,292,10.0,12.0,61,0.00,,OVC080,0.01,VWS V14.01,2013-11-18 21:20:00,
2013-11-18 16:25:00,44.0,31.8,29.81,NW,315,5.0,16.0,62,0.00,,OVC080,0.01,VWS V14.01,2013-11-18 21:25:00,
2013-11-18 16:30:00,43.0,31.3,29.81,WNW,292,9.0,9.0,63,0.00,,OVC080,0.01,VWS V14.01,2013-11-18 21:30:00,
2013-11-18 16:35:00,43.0,31.3,29.81,NW,315,1.0,4.0,63,0.00,,OVC080,0.01,VWS V14.01,2013-11-18 21:35:00,
2013-11-18 16:40:00,43.0,30.9,29.83,West,270,8.0,13.0,62,0.00,,OVC080,0.01,VWS V14.01,2013-11-18 21:40:00,
2013-11-18 16:45:00,43.0,30.5,29.83,NW,315,17.0,17.0,61,0.00,,OVC080,0.01,VWS V14.01,2013-11-18 21:45:00,
2013-11-18 16:50:00,43.0,30.5,29.82,NW,315,7.0,13.0,61,0.00,,OVC080,0.01,VWS V14.01,2013-11-18 21:50:00,
2013-11-18 16:55:00,42.0,29.5,29.82,West,270,1.0,5.0,61,0.00,,OVC080,0.01,VWS V14.01,2013-11-18 21:55:00,
2013-11-18 17:00:00,42.0,29.1,29.84,WSW,247,5.0,18.0,60,0.00,,OVC080,0.01,VWS V14.01,2013-11-18 22:00:00,
2013-11-18 17:05:00,42.0,28.7,29.84,WNW,292,10.0,19.0,59,0.00,,OVC080,0.01,VWS V14.01,2013-11-18 22:05:00,
2013-11-18 17:10:00,42.0,28.7,29.85,NW,315,3.0,9.0,59,0.00,,OVC080,0.01,VWS V14.01,2013-11-18 22:10:00,
2013-11-18 17:15:00,42.0,28.7,29.85,NNW,337,3.0,13.0,59,0.00,,OVC080,0.01,VWS V14.01,2013-11-18 22:15:00,
2013-11-18 17:20:00,42.0,28.7,29.85,South,180,0.0,18.0,59,0.00,,OVC080,0.01,VWS V14.01,2013-11-18 22:20:00,
2013-11-18 17:25:00,42.0,29.1,29.85,SW,225,10.0,15.0,60,0.00,,OVC080,0.01,VWS V14.01,2013-11-18 22:25:00,
2013-11-18 17:30:00,42.0,29.1,29.85,West,270,7.0,9.0,60,0.00,,OVC080,0.01,VWS V14.01,2013-11-18 22:30:00,
2013-11-18 17:35:00,42.0,29.5,29.85,WNW,292,6.0,11.0,61,0.00,,OVC080,0.01,VWS V14.01,2013-11-18 22:35:00,
2013-11-18 17:40:00,42.0,29.5,29.85,NW,315,4.0,10.0,61,0.00,,OVC080,0.01,VWS V14.01,2013-11-18 22:40:00,
2013-11-18 17:45:00,42.0,29.9,29.85,WSW,247,3.0,5.0,62,0.00,,OVC080,0.01,VWS V14.01,2013-11-18 22:45:00,
2013-11-18 17:50:00,42.0,30.3,29.87,WNW,292,7.0,7.0,63,0.00,,OVC080,0.01,VWS V14.01,2013-11-18 22:50:00,
2013-11-18 17:55:00,42.0,30.3,29.87,West,270,7.0,8.0,63,0.00,,OVC080,0.01,VWS V14.01,2013-11-18 22:55:00,
2013-11-18 18:00:00,42.0,30.3,29.87,SW,225,7.0,7.0,63,0.00,,OVC080,0.01,VWS V14.01,2013-11-18 23:00:00,
2013-11-18 18:05:00,41.0,29.4,29.87,West,270,10.0,19.0,63,0.00,,OVC080,0.01,VWS V14.01,2013-11-18 23:05:00,
2013-11-18 18:10:00,41.0,29.4,29.88,WNW,292,4.0,10.0,63,0.00,,OVC080,0.01,VWS V14.01,2013-11-18 23:10:00,
2013-11-18 18:15:00,41.0,29.0,29.88,NW,315,9.0,13.0,62,0.00,,OVC080,0.01,VWS V14.01,2013-11-18 23:15:00,
2013-11-18 18:20:00,41.0,28.6,29.89,WNW,292,14.0,17.0,61,0.00,,OVC080,0.01,VWS V14.01,2013-11-18 23:20:00,
2013-11-18 18:25:00,41.0,29.4,29.89,SW,225,1.0,10.0,63,0.00,,OVC080,0.01,VWS V14.01,2013-11-18 23:25:00,
2013-11-18 18:30:00,41.0,29.0,29.90,NNW,337,6.0,9.0,62,0.00,,OVC080,0.01,VWS V14.01,2013-11-18 23:30:00,
2013-11-18 18:35:00,40.0,27.6,29.90,ENE,67,0.0,15.0,61,0.00,,OVC080,0.01,VWS V14.01,2013-11-18 23:35:00,
2013-11-18 18:40:00,40.0,27.6,29.91,NW,315,7.0,9.0,61,0.00,,OVC080,0.01,VWS V14.01,2013-11-18 23:40:00,
2013-11-18 18:45:00,40.0,27.6,29.91,NNE,22,1.0,16.0,61,0.00,,OVC080,0.01,VWS V14.01,2013-11-18 23:45:00,
2013-11-18 18:50:00,40.0,27.6,29.92,WNW,292,14.0,20.0,61,0.00,,OVC080,0.01,VWS V14.01,2013-11-18 23:50:00,
2013-11-18 18:55:00,40.0,27.6,29.92,NNW,337,7.0,9.0,61,0.00,,OVC080,0.01,VWS V14.01,2013-11-18 23:55:00,
2013-11-18 19:00:00,40.0,27.6,29.92,NNW,337,4.0,10.0,61,0.00,,OVC080,0.01,VWS V14.01,2013-11-19 00:00:00,
2013-11-18 19:05:00,40.0,28.0,29.92,NW,315,0.0,16.0,62,0.00,,OVC080,0.01,VWS V14.01,2013-11-19 00:05:00,
2013-11-18 19:10:00,40.0,28.0,29.92,West,270,3.0,19.0,62,0.00,,OVC080,0.01,VWS V14.01,2013-11-19 00:10:00,
2013-11-18 19:15:00,40.0,28.4,29.92,NW,315,0.0,8.0,63,0.00,,OVC080,0.01,VWS V14.01,2013-11-19 00:15:00,
2013-11-18 19:20:00,40.0,28.4,29.92,WSW,247,6.0,13.0,63,0.00,,OVC080,0.01,VWS V14.01,2013-11-19 00:20:00,
2013-11-18 19:25:00,39.0,27.5,29.92,West,270,3.0,12.0,63,0.00,,OVC080,0.01,VWS V14.01,2013-11-19 00:25:00,
2013-11-18 19:30:00,39.0,27.9,29.92,NNW,337,5.0,7.0,64,0.00,,OVC080,0.01,VWS V14.01,2013-11-19 00:30:00,
2013-11-18 19:35:00,39.0,27.9,29.92,NW,315,7.0,12.0,64,0.00,,OVC080,0.01,VWS V14.01,2013-11-19 00:35:00,
2013-11-18 19:40:00,39.0,27.5,29.93,West,270,7.0,9.0,63,0.00,,OVC080,0.01,VWS V14.01,2013-11-19 00:40:00,
2013-11-18 19:45:00,39.0,27.9,29.93,West,270,9.0,10.0,64,0.00,,OVC080,0.01,VWS V14.01,2013-11-19 00:45:00,
2013-11-18 19:50:00,39.0,27.9,29.93,SW,225,7.0,13.0,64,0.00,,OVC080,0.01,VWS V14.01,2013-11-19 00:50:00,
2013-11-18 19:55:00,39.0,27.5,29.93,West,270,3.0,16.0,63,0.00,,OVC080,0.01,VWS V14.01,2013-11-19 00:55:00,
2013-11-18 20:00:00,39.0,27.5,29.93,WNW,292,7.0,13.0,63,0.00,,OVC080,0.01,VWS V14.01,2013-11-19 01:00:00,
2013-11-18 20:05:00,39.0,27.9,29.93,West,270,11.0,11.0,64,0.00,,OVC080,0.01,VWS V14.01,2013-11-19 01:05:00,
2013-11-18 20:10:00,39.0,27.5,29.94,NNE,22,3.0,10.0,63,0.00,,OVC080,0.01,VWS V14.01,2013-11-19 01:10:00,
2013-11-18 20:15:00,39.0,27.9,29.94,West,270,6.0,16.0,64,0.00,,OVC080,0.01,VWS V14.01,2013-11-19 01:15:00,
2013-11-18 20:20:00,39.0,27.9,29.94,NW,315,3.0,6.0,64,0.00,,OVC080,0.01,VWS V14.01,2013-11-19 01:20:00,
2013-11-18 20:25:00,39.0,27.9,29.94,West,270,9.0,12.0,64,0.00,,OVC080,0.01,VWS V14.01,2013-11-19 01:25:00,
2013-11-18 20:30:00,39.0,27.9,29.94,WSW,247,6.0,10.0,64,0.00,,OVC080,0.01,VWS V14.01,2013-11-19 01:30:00,
2013-11-18 20:35:00,39.0,27.5,29.94,WSW,247,6.0,20.0,63,0.00,,OVC080,0.01,VWS V14.01,2013-11-19 01:35:00,
2013-11-18 20:40:00,39.0,27.9,29.96,WNW,292,8.0,13.0,64,0.00,,OVC080,0.01,VWS V14.01,2013-11-19 01:40:00,
2013-11-18 20:45:00,39.0,27.9,29.96,West,270,10.0,10.0,64,0.00,,OVC080,0.01,VWS V14.01,2013-11-19 01:45:00,
2013-11-18 20:50:00,39.0,27.9,29.96,West,270,0.0,6.0,64,0.00,,OVC080,0.01,VWS V14.01,2013-11-19 01:50:00,
2013-11-18 20:54:00,39.0,27.9,29.96,West,270,9.0,10.0,64,0.00,,OVC080,0.01,VWS V14.01,2013-11-19 01:54:00,
2013-11-18 20:59:00,39.0,27.9,29.96,West,270,15.0,15.0,64,0.00,,OVC080,0.01,VWS V14.01,2013-11-19 01:59:00,
2013-11-18 21:04:00,39.0,27.9,29.96,WNW,292,7.0,14.0,64,0.00,,OVC080,0.01,VWS V14.01,2013-11-19 02:04:00,
2013-11-18 21:09:00,39.0,28.2,29.96,NW,315,3.0,10.0,65,0.00,,OVC080,0.01,VWS V14.01,2013-11-19 02:09:00,
2013-11-18 21:14:00,39.0,28.2,29.96,West,270,3.0,8.0,65,0.00,,OVC080,0.01,VWS V14.01,2013-11-19 02:14:00,
2013-11-18 21:19:00,39.0,28.2,29.97,West,270,14.0,14.0,65,0.00,,OVC080,0.01,VWS V14.01,2013-11-19 02:19:00,
2013-11-18 21:24:00,39.0,28.6,29.97,West,270,7.0,9.0,66,0.00,,OVC080,0.01,VWS V14.01,2013-11-19 02:24:00,
2013-11-18 21:29:00,38.0,28.8,29.97,WNW,292,8.0,9.0,69,0.00,,OVC080,0.01,VWS V14.01,2013-11-19 02:29:00,
2013-11-18 21:34:00,38.0,29.1,29.97,NW,315,7.0,12.0,70,0.00,,OVC080,0.01,VWS V14.01,2013-11-19 02:34:00,
2013-11-18 21:39:00,38.0,29.5,29.98,West,270,11.0,21.0,71,0.00,,OVC080,0.01,VWS V14.01,2013-11-19 02:39:00,
2013-11-18 21:44:00,38.0,29.5,29.98,NW,315,2.0,12.0,71,0.00,,OVC080,0.01,VWS V14.01,2013-11-19 02:44:00,
2013-11-18 21:49:00,38.0,29.1,29.98,WNW,292,8.0,11.0,70,0.00,,OVC080,0.01,VWS V14.01,2013-11-19 02:49:00,
2013-11-18 21:54:00,38.0,28.4,29.98,NW,315,3.0,10.0,68,0.00,,OVC080,0.01,VWS V14.01,2013-11-19 02:54:00,
2013-11-18 21:59:00,38.0,28.4,29.99,NW,315,3.0,8.0,68,0.00,,OVC080,0.01,VWS V14.01,2013-11-19 02:59:00,
2013-11-18 22:04:00,38.0,28.0,29.99,WNW,292,7.0,13.0,67,0.00,,OVC080,0.01,VWS V14.01,2013-11-19 03:04:00,
2013-11-18 22:09:00,37.0,27.8,29.99,NW,315,1.0,10.0,69,0.00,,OVC080,0.01,VWS V14.01,2013-11-19 03:09:00,
2013-11-18 22:14:00,37.0,27.4,29.99,West,270,2.0,12.0,68,0.00,,OVC080,0.01,VWS V14.01,2013-11-19 03:14:00,
2013-11-18 22:19:00,37.0,27.8,29.99,NNW,337,4.0,6.0,69,0.00,,OVC080,0.01,VWS V14.01,2013-11-19 03:19:00,
2013-11-18 22:24:00,37.0,27.8,29.99,WNW,292,10.0,14.0,69,0.00,,OVC080,0.01,VWS V14.01,2013-11-19 03:24:00,
2013-11-18 22:29:00,37.0,27.8,30.00,West,270,0.0,9.0,69,0.00,,OVC080,0.01,VWS V14.01,2013-11-19 03:29:00,
2013-11-18 22:34:00,37.0,27.8,30.00,WNW,292,10.0,10.0,69,0.00,,OVC080,0.01,VWS V14.01,2013-11-19 03:34:00,
2013-11-18 22:39:00,37.0,27.8,30.00,WNW,292,5.0,10.0,69,0.00,,OVC080,0.01,VWS V14.01,2013-11-19 03:39:00,
2013-11-18 22:44:00,37.0,28.1,30.00,NNW,337,0.0,4.0,70,0.00,,OVC080,0.01,VWS V14.01,2013-11-19 03:44:00,
2013-11-18 22:49:00,37.0,28.1,30.01,NW,315,0.0,15.0,70,0.00,,OVC080,0.01,VWS V14.01,2013-11-19 03:49:00,
2013-11-18 22:54:00,37.0,27.8,30.01,NW,315,10.0,13.0,69,0.00,,OVC080,0.01,VWS V14.01,2013-11-19 03:54:00,
2013-11-18 22:59:00,37.0,27.8,30.01,NE,45,3.0,11.0,69,0.00,,OVC080,0.01,VWS V14.01,2013-11-19 03:59:00,
2013-11-18 23:04:00,37.0,27.8,30.01,WNW,292,8.0,11.0,69,0.00,,OVC080,0.00,VWS V14.01,2013-11-19 04:04:00,
2013-11-18 23:07:00,37.0,27.4,30.02,WSW,247,3.0,12.0,68,0.00,,OVC080,0.00,VWS V14.01,2013-11-19 04:07:00,
2013-11-18 23:12:00,37.0,27.4,30.02,NW,315,9.0,9.0,68,0.00,,OVC080,0.00,VWS V14.01,2013-11-19 04:12:00,
2013-11-18 23:17:00,37.0,27.8,30.02,West,270,0.0,7.0,69,0.00,,OVC080,0.00,VWS V14.01,2013-11-19 04:17:00,
2013-11-18 23:22:00,36.0,26.5,30.02,West,270,12.0,13.0,68,0.00,,OVC080,0.00,VWS V14.01,2013-11-19 04:22:00,
2013-11-18 23:27:00,37.0,27.4,30.02,West,270,6.0,9.0,68,0.00,,OVC080,0.00,VWS V14.01,2013-11-19 04:27:00,
2013-11-18 23:32:00,36.0,26.8,30.02,NW,315,0.0,11.0,69,0.00,,OVC080,0.00,VWS V14.01,2013-11-19 04:32:00,
2013-11-18 23:37:00,36.0,26.8,30.03,NW,315,2.0,9.0,69,0.00,,OVC080,0.00,VWS V14.01,2013-11-19 04:37:00,
2013-11-18 23:42:00,36.0,27.2,30.03,NNW,337,1.0,7.0,70,0.00,,OVC080,0.00,VWS V14.01,2013-11-19 04:42:00,
2013-11-18 23:47:00,36.0,27.2,30.03,North,360,1.0,7.0,70,0.00,,OVC080,0.00,VWS V14.01,2013-11-19 04:47:00,
2013-11-18 23:52:00,36.0,27.5,30.03,NNE,22,11.0,16.0,71,0.00,,OVC080,0.00,VWS V14.01,2013-11-19 04:52:00,
2013-11-18 23:57:00,36.0,26.8,30.04,North,360,7.0,14.0,69,0.00,,OVC080,0.00,VWS V14.01,2013-11-19 04:57:00,